RH
13 14 14 15 15 15 15 15 16 16 16 17 17 18 18 19 19 19 19 20 21 22 21 21 22 21 23 24 23 23 22 22 23 23 24 25 25 24 28 38 53 67 76 82 86 88 89 90 91 92 92 93 94 95 96 97 99 100 100 99 97 92 86 80 75 70 65 62 59 55 53 50 47 45 44 42 41 40 38 37 35 33 30 27 25 22
14 14 15 16 16 16 16 17 17 17 17 18 19 19 20 20 20 20 21 21 22 23 22 22 22 22 24 26 25 25 24 24 25 25 27 26 27 27 28 39 54 67 78 85 89 92 94 95 94 92 92 93 94 96 99 100 100 100 97 93 87 81 76 70 65 61 57 54 52 50 49 47 46 44 44 41 39 37 35 32 30 26 22 17 14 12
14 15 17 17 16 17 18 18 18 18 19 20 21 21 21 21 21 21 21 22 23 24 23 24 24 22 24 26 27 26 25 26 27 27 29 29 29 31 32 43 59 73 84 89 94 97 96 96 95 93 95 97 98 100 100 99 97 93 89 83 78 72 67 63 59 55 52 51 50 51 51 50 49 46 44 41 37 34 30 26 21 16 12 9 7 6
16 17 17 17 18 19 19 19 20 21 22 22 22 22 22 23 24 24 23 24 25 24 25 27 24 22 25 26 26 27 27 28 30 31 32 33 34 37 40 52 70 84 91 95 99 99 95 95 97 98 99 100 100 99 96 93 88 82 78 73 68 64 61 59 58 56 54 53 54 55 54 53 50 45 39 34 28 23 19 15 13 10 7 6 5 5
17 18 18 18 19 20 20 21 22 23 23 23 23 24 24 24 26 26 24 25 24 25 27 28 26 23 25 27 26 28 31 31 33 33 34 38 42 47 53 64 81 93 98 99 98 98 97 98 100 100 101 100 97 93 88 83 79 75 71 67 64 62 61 61 61 60 59 58 58 58 55 49 43 36 28 21 15 12 10 8 7 7 6 5 5 4
18 18 18 19 20 21 22 23 24 24 25 25 24 25 26 26 26 25 26 27 25 27 27 29 41 37 25 28 31 30 33 34 35 36 38 43 49 56 68 80 93 99 100 98 96 98 100 100 100 100 98 94 88 82 77 74 73 71 68 65 64 62 62 65 66 66 65 63 62 57 49 40 34 29 23 17 12 9 8 7 6 6 6 6 5 5
18 19 19 20 21 21 23 24 25 26 26 26 26 27 28 27 27 26 28 28 27 30 27 29 48 48 30 28 33 32 35 36 35 38 42 48 56 67 83 95 100 100 98 96 97 100 101 100 98 93 87 81 76 74 72 71 70 68 64 62 61 62 66 72 74 73 70 66 62 54 45 41 40 36 29 22 15 10 9 8 8 7 7 7 6 6
18 20 20 21 22 22 24 25 27 28 27 27 28 28 28 27 28 29 29 29 29 31 30 29 40 46 38 33 33 35 38 37 38 42 47 54 65 79 94 101 99 97 96 98 101 100 98 93 85 78 74 72 72 73 72 69 63 58 59 61 64 70 76 82 84 79 73 69 62 56 54 55 51 44 36 27 18 11 9 9 9 9 8 8 8 8
18 19 20 21 22 24 26 28 29 28 28 28 29 29 29 28 30 30 28 28 30 32 32 31 35 41 40 34 36 39 38 39 42 47 53 63 76 89 98 99 96 98 99 99 97 91 85 77 71 71 72 71 72 71 65 58 53 58 68 74 77 81 82 84 84 77 73 69 64 64 65 62 54 47 40 31 20 12 11 11 10 10 10 9 9 9
18 20 22 23 24 26 28 29 29 28 29 30 30 30 29 28 29 30 30 28 31 37 35 31 33 39 42 38 39 40 39 42 47 53 63 74 83 90 94 96 98 98 95 90 85 79 75 72 71 72 70 68 64 54 47 47 59 78 88 88 88 86 83 83 83 78 72 67 69 73 70 61 53 45 37 28 19 13 13 13 11 12 11 10 10 9
20 22 24 24 26 28 29 29 29 29 31 30 31 31 27 27 28 30 32 28 31 41 38 32 35 43 49 45 40 41 43 47 53 61 70 77 83 89 94 98 96 90 84 79 77 77 77 76 74 71 66 59 46 33 37 56 77 90 92 92 93 88 82 82 84 82 75 76 83 80 68 59 50 39 30 24 18 15 14 14 13 12 12 11 10 9
23 23 24 26 28 29 29 29 28 30 32 32 33 32 29 31 31 32 35 37 46 51 40 36 41 47 51 47 42 45 48 51 58 66 73 80 89 94 96 93 88 85 82 80 79 77 73 67 59 49 40 31 23 27 47 71 90 97 97 99 98 92 87 87 90 90 89 92 90 77 65 55 42 31 27 24 19 17 15 14 13 12 12 11 10 10
22 24 25 27 28 29 30 28 28 30 32 33 33 34 39 45 46 49 49 52 60 54 41 41 46 50 50 44 44 50 53 59 67 72 79 90 97 96 92 90 87 85 82 78 75 70 63 54 40 27 23 26 36 53 67 81 95 102 101 101 99 97 96 96 99 100 99 94 83 72 62 46 34 32 32 28 23 20 17 15 14 13 12 11 10 10
23 25 25 27 28 30 32 30 30 32 33 35 37 40 48 56 67 74 64 58 59 51 44 45 46 49 46 42 49 56 60 67 72 77 89 98 101 98 95 92 86 80 77 75 72 68 64 57 46 43 52 67 82 90 90 91 97 98 97 100 100 100 100 100 102 101 96 88 79 70 55 39 37 43 40 32 26 22 19 16 14 13 12 11 10 10
30 29 26 27 29 31 33 32 34 36 35 37 41 44 47 52 69 80 69 63 64 57 50 49 48 49 47 48 56 59 62 70 77 90 99 98 96 94 91 85 80 80 79 74 67 60 56 53 55 68 85 97 101 99 94 92 97 99 98 100 100 100 101 101 102 103 97 89 80 66 50 44 50 52 43 32 25 23 21 17 15 13 12 12 11 13
32 30 27 28 30 32 34 33 35 36 35 39 42 46 49 49 56 65 62 59 63 62 55 48 48 48 48 53 57 60 69 80 92 99 95 88 87 86 83 80 80 78 68 59 53 46 46 57 75 91 98 98 95 92 84 78 87 100 100 99 100 99 98 100 102 103 96 88 79 63 52 54 57 52 41 30 23 22 21 17 15 13 12 13 14 19
32 27 26 29 31 33 34 34 37 37 35 40 44 48 52 52 52 58 60 54 57 66 60 48 47 50 52 59 61 68 81 90 94 92 86 89 92 88 85 82 78 68 55 53 54 53 65 85 98 100 98 98 96 88 74 64 75 98 103 98 97 95 97 102 100 96 91 86 76 59 50 51 51 46 39 32 26 21 18 15 14 13 13 16 21 30
34 27 25 29 31 32 34 34 36 37 38 42 49 52 52 53 54 58 65 65 66 72 61 48 52 57 57 62 67 77 89 92 90 90 95 98 93 88 83 77 70 59 52 55 54 56 80 98 99 98 101 99 81 55 48 58 77 100 106 99 98 99 99 97 90 89 88 79 63 49 43 43 42 40 36 31 24 18 16 15 15 14 16 25 38 51
35 31 26 28 31 32 33 35 36 38 41 45 52 56 55 59 61 63 73 81 80 78 67 55 56 59 58 62 73 86 94 95 95 99 101 95 89 85 77 69 62 49 45 53 54 61 89 104 100 97 90 69 41 26 42 70 87 98 102 100 98 94 87 83 82 81 73 59 49 44 39 34 33 33 30 24 19 17 16 15 15 18 26 43 61 73
36 37 32 27 31 33 32 36 38 39 43 48 52 58 61 65 67 68 73 74 76 81 80 71 63 59 60 67 78 89 94 97 102 102 97 91 85 75 64 57 48 35 35 51 66 81 97 97 82 69 51 32 33 55 80 95 97 95 92 88 82 74 70 70 70 64 56 52 51 46 35 27 24 24 21 18 17 17 16 15 20 32 48 65 79 87
35 40 37 28 29 34 34 37 40 42 47 52 55 61 65 64 63 66 66 62 69 80 82 84 79 64 62 72 79 85 91 100 104 96 90 85 67 51 50 46 33 26 34 56 80 91 81 60 40 31 24 21 38 66 79 77 73 67 61 59 57 57 60 63 63 62 63 61 51 38 27 21 19 18 18 17 17 17 16 19 32 52 70 83 91 96
36 40 40 33 31 35 36 40 43 45 49 54 59 64 69 68 65 71 74 64 66 75 78 89 93 74 67 75 79 85 97 102 94 87 88 75 50 46 51 39 29 36 51 66 74 66 45 28 21 22 24 22 29 45 53 51 49 48 49 54 59 65 75 80 77 70 58 44 31 24 21 19 18 18 18 18 17 17 20 31 51 72 86 94 98 99
36 39 40 36 35 37 41 44 45 47 49 52 57 61 66 69 66 75 83 71 68 75 76 84 89 76 69 75 80 91 99 91 83 88 86 59 43 52 46 27 31 48 58 61 50 33 24 21 23 26 27 26 30 38 48 53 58 65 70 75 78 81 83 78 64 45 31 24 22 21 20 19 19 19 18 17 18 23 35 54 73 87 95 99 99 98
34 39 41 36 34 36 39 41 42 44 47 50 56 60 65 70 71 75 76 73 78 83 83 91 89 72 66 75 86 94 90 83 88 88 65 37 38 43 28 27 48 55 51 45 30 21 21 20 24 27 22 24 29 34 51 71 82 88 90 89 84 73 60 47 33 24 22 23 22 20 20 19 18 18 17 20 27 40 58 77 90 96 98 99 99 97
34 38 41 42 45 47 45 43 43 43 46 51 58 64 66 69 72 71 70 79 88 84 87 100 94 73 72 83 89 86 82 89 89 65 36 34 44 33 18 37 62 56 41 31 21 21 23 21 29 35 34 40 47 55 80 100 100 93 86 76 64 50 38 30 25 24 25 24 21 20 20 18 17 18 22 32 46 62 78 92 97 99 99 98 97 96
35 38 41 48 57 63 61 56 51 49 51 54 59 64 65 64 66 68 73 85 91 90 95 100 92 84 81 83 82 80 89 96 69 30 23 40 43 26 20 39 52 44 32 25 22 24 22 22 32 44 56 63 60 60 74 78 66 56 49 42 37 33 29 26 25 25 23 22 22 20 17 16 19 25 36 52 68 82 93 98 99 99 100 97 95 97
36 38 41 46 51 55 57 52 48 52 56 57 61 65 62 59 63 67 73 84 93 101 98 87 90 97 87 81 85 90 98 86 42 18 32 39 27 18 21 30 34 29 24 23 23 23 21 22 26 34 43 45 37 34 37 36 32 30 28 28 29 29 27 26 24 23 22 21 19 17 17 21 28 39 56 74 87 95 98 99 99 100 99 97 96 97
36 37 40 42 43 44 46 45 47 54 59 62 65 64 58 57 62 67 74 85 97 103 92 80 92 101 88 85 94 99 96 66 26 25 41 31 16 16 18 20 21 20 19 21 21 20 22 22 18 20 25 25 25 26 24 25 26 27 28 27 26 25 24 23 21 20 19 17 15 18 23 30 43 59 78 92 99 100 99 99 100 101 100 99 98 96
37 39 40 40 38 38 42 44 48 55 62 63 59 54 54 57 63 69 76 84 95 102 97 92 98 99 88 88 97 99 84 46 16 22 28 17 13 16 17 19 19 17 19 20 19 18 20 18 15 18 21 20 22 23 21 22 23 23 23 23 22 22 21 19 18 17 16 16 20 27 35 49 67 84 96 101 101 100 99 99 100 100 101 102 98 96
39 39 42 43 36 34 41 44 48 56 61 56 48 47 54 61 66 72 76 84 97 102 98 98 100 91 84 94 101 86 54 21 9 14 15 13 17 18 19 20 17 18 19 18 19 19 17 16 16 17 19 19 18 18 19 19 18 19 19 18 19 18 17 17 16 16 18 23 32 42 56 75 92 99 102 102 101 101 99 98 99 100 102 100 98 99
40 41 44 46 37 34 41 44 47 53 51 46 47 53 59 62 66 73 79 88 98 96 92 97 95 82 84 101 93 53 17 7 10 13 14 18 21 20 20 19 17 19 18 16 18 18 14 15 17 17 18 18 17 17 18 17 17 18 18 17 17 16 16 18 19 21 27 35 47 63 81 96 101 101 102 103 102 101 99 98 99 101 102 100 99 101
41 43 45 48 43 38 41 44 45 45 44 45 52 56 58 62 69 77 82 87 94 94 92 91 86 86 98 95 59 17 4 11 13 13 17 19 19 20 20 18 18 19 17 16 17 15 13 15 17 17 18 21 23 24 25 26 26 25 22 21 19 18 19 21 24 30 37 50 68 85 98 102 100 100 103 103 102 101 101 102 103 103 102 101 100 100
42 43 44 50 49 41 42 46 43 41 47 52 52 54 59 66 74 76 75 80 90 95 92 86 87 96 94 64 25 6 10 15 14 16 19 18 17 19 18 17 19 18 17 17 16 14 13 14 16 20 25 32 40 45 47 49 48 41 34 30 27 24 23 25 30 37 48 68 87 97 102 103 99 98 100 102 103 103 103 103 103 103 101 100 100 100
41 44 45 50 51 45 44 46 43 45 54 54 50 56 63 70 80 81 77 82 86 79 76 81 88 88 69 37 15 10 11 12 13 15 18 18 18 17 16 17 18 17 17 17 15 13 13 13 18 26 35 47 58 65 68 68 64 55 46 38 32 26 25 28 34 42 58 81 97 100 102 101 98 98 100 102 103 102 101 101 101 101 100 100 100 100
41 44 45 48 52 49 46 49 50 51 51 49 52 61 66 72 83 82 74 75 72 65 70 81 81 69 48 23 11 9 9 10 11 12 15 17 16 15 17 17 17 17 17 17 14 12 11 14 20 30 44 60 71 77 78 74 68 61 51 42 33 26 27 31 35 46 67 90 101 101 100 98 98 100 101 101 101 100 100 100 100 100 100 100 100 100
42 45 45 48 52 52 56 64 64 55 50 51 56 62 67 71 77 74 64 57 59 68 77 80 74 57 32 11 6 8 9 7 7 9 12 13 13 16 18 17 18 19 18 17 15 11 10 15 23 38 57 74 84 87 84 77 71 62 53 44 34 27 29 32 35 52 78 95 100 99 97 96 99 101 100 100 100 100 100 100 100 100 100 100 100 100
42 44 46 49 53 56 64 69 62 54 51 53 56 61 69 77 83 87 77 61 63 78 82 80 75 51 18 4 6 8 7 6 6 7 9 11 12 16 17 17 19 19 19 18 14 10 11 16 30 52 72 84 90 90 87 84 78 68 56 46 36 30 32 32 36 58 86 97 96 94 93 95 99 101 100 100 100 100 100 100 100 100 100 100 100 98
42 44 46 51 54 58 66 70 71 69 59 51 54 61 70 79 86 91 85 71 72 82 81 78 70 39 10 5 8 6 7 8 6 7 10 12 14 16 17 18 19 19 20 18 13 10 11 17 39 66 82 88 91 93 92 91 86 76 62 49 38 32 32 30 37 64 89 95 91 89 89 94 99 100 100 100 100 100 100 100 100 100 100 100 98 96
42 43 45 50 54 59 67 74 78 74 57 49 57 63 68 74 76 80 81 74 73 77 75 71 56 25 6 7 8 7 10 9 7 10 13 14 16 17 17 18 18 19 20 17 13 10 10 21 50 77 87 89 92 93 94 93 89 82 71 58 45 36 31 30 39 65 88 91 87 87 88 92 97 98 99 101 100 98 99 99 100 100 100 100 99 99
42 44 46 49 53 59 66 70 67 58 49 52 62 67 69 69 67 74 79 72 66 69 72 66 45 17 5 8 8 8 11 12 12 12 13 15 16 16 17 19 20 20 19 17 14 10 10 26 59 83 88 90 92 92 92 92 90 86 79 72 61 47 38 34 42 66 86 89 86 86 87 92 97 98 99 100 97 96 98 100 101 100 100 101 101 101
43 45 46 49 52 56 64 69 62 51 50 58 63 64 64 65 69 80 82 72 66 69 69 58 35 12 6 8 8 8 11 12 13 13 13 14 14 14 16 19 19 20 20 18 15 10 9 28 63 86 88 89 89 88 89 90 91 90 85 82 75 62 49 42 48 69 85 88 87 87 87 93 97 98 100 99 95 95 99 100 101 100 100 101 100 100
44 46 47 49 52 54 59 64 60 53 52 58 60 59 61 69 78 79 73 69 70 70 65 50 27 9 6 8 8 9 10 10 11 11 12 13 13 14 16 18 18 19 19 17 15 11 9 28 65 86 87 86 85 83 83 88 93 94 90 85 82 73 63 55 57 71 84 87 88 89 90 95 99 101 102 98 94 97 100 99 99 100 101 101 100 100
45 47 48 49 51 54 57 59 60 56 53 54 58 59 62 69 74 70 66 68 70 68 61 44 20 7 6 7 7 8 9 9 9 10 10 11 12 13 15 17 18 18 18 17 16 12 8 26 63 85 85 84 83 81 81 85 92 96 92 89 86 81 73 66 65 74 84 87 87 90 93 98 102 103 102 96 93 99 100 98 99 101 100 100 100 100
45 47 48 49 51 54 55 54 55 54 53 54 58 61 62 63 64 65 66 67 66 65 58 40 18 8 7 7 7 8 8 8 8 9 9 9 11 12 14 16 17 18 18 16 15 13 8 23 59 83 84 82 83 81 82 86 93 97 96 93 90 85 79 75 72 77 85 86 86 90 95 99 102 103 100 96 95 99 100 99 100 101 101 100 99 99
44 45 47 48 50 51 51 50 50 50 51 54 56 58 59 60 62 64 65 65 64 63 56 38 18 8 6 7 7 7 8 8 7 8 8 8 10 12 14 16 16 18 18 16 15 14 9 19 54 80 83 82 82 81 83 88 93 97 99 98 95 89 84 80 77 79 84 85 86 91 96 99 101 101 99 98 97 97 97 98 100 100 100 99 97 97
43 44 47 48 47 49 50 50 50 50 51 53 55 56 57 59 61 62 64 65 63 61 54 38 19 8 6 7 7 6 8 8 7 8 8 8 9 11 13 15 16 17 18 15 14 14 9 16 49 77 81 81 82 81 84 91 95 97 101 102 99 93 88 85 82 83 85 85 86 91 96 99 98 97 96 96 95 95 96 98 100 99 96 94 94 96
43 45 48 47 47 50 51 51 50 51 52 53 55 56 57 58 61 63 64 64 63 61 55 39 20 9 7 7 7 7 7 7 7 7 7 7 8 10 12 15 15 15 17 15 13 14 10 13 42 73 80 78 80 81 84 91 96 99 103 103 98 93 90 88 87 87 86 85 87 92 98 99 97 94 94 95 95 95 97 100 100 97 92 91 95 99
45 47 47 46 48 51 53 52 52 53 53 53 54 55 56 59 61 62 63 64 63 62 56 41 22 10 7 7 7 7 7 7 7 7 7 7 7 9 11 13 14 14 16 15 13 14 11 11 36 69 79 76 78 81 83 91 98 101 103 101 95 91 90 88 88 88 86 84 87 92 98 100 98 94 96 99 100 99 100 101 99 93 87 91 99 102
45 46 45 46 51 54 54 54 55 55 54 54 54 55 57 59 60 61 63 64 63 62 58 45 25 12 7 7 7 6 7 7 7 6 7 6 7 8 10 12 13 12 13 13 12 13 11 10 30 64 77 76 77 80 82 90 98 99 101 98 92 90 90 88 87 87 84 83 86 90 95 99 97 95 99 103 102 101 99 95 91 86 85 91 98 97
46 47 47 48 52 54 55 57 58 57 56 55 55 56 57 58 60 61 62 63 63 61 59 50 31 15 8 7 7 6 7 7 6 6 7 6 6 8 8 10 12 11 11 12 11 12 12 9 25 58 76 75 76 79 80 87 95 98 97 94 90 88 88 87 86 85 81 80 83 87 92 95 94 95 101 102 99 97 95 90 87 88 90 93 94 91
48 49 50 51 53 55 57 58 59 59 58 57 56 57 58 59 60 61 62 63 63 62 60 54 39 21 10 7 7 7 7 7 6 6 6 6 7 8 8 9 11 10 10 10 9 11 11 8 18 49 71 73 72 75 76 82 92 95 93 90 88 86 85 85 83 80 77 77 80 83 88 90 89 91 96 97 96 96 96 92 91 92 90 88 90 92
Wind_Speed
16 16 21 23 21 21 20 21 21 22 23 24 26 30 32 35 39 40 40 40 42 48 51 48 51 52 47 42 31 19 14 16 19 22 27 30 29 30 29 28 27 29 33 36 39 41 43 43 42 41 41 41 41 41 40 40 39 39 39 40 43 47 50 53 55 57 59 60 61 63 64 64 64 64 64 65 65 66 67 68 69 69 69 69 69 68
18 19 23 21 19 19 20 21 23 23 23 26 28 31 33 35 41 44 40 41 46 49 51 50 50 50 44 32 19 15 17 21 24 26 28 28 26 26 28 27 26 27 32 36 39 41 42 41 40 38 38 37 36 36 35 36 38 40 44 48 52 55 58 60 62 63 65 66 67 67 67 67 66 66 66 66 67 68 69 70 70 69 69 67 66 65
20 22 22 19 19 20 21 22 23 24 26 28 29 31 33 36 42 46 44 45 46 47 51 48 46 49 41 22 16 22 25 23 26 28 25 24 24 26 28 27 25 27 32 37 39 40 39 38 36 34 32 31 32 34 37 41 45 49 53 57 60 62 63 64 65 67 68 68 67 67 65 64 64 65 65 66 67 67 67 66 65 63 61 60 60 60
23 22 20 19 20 22 23 23 24 27 28 28 30 29 32 36 38 43 48 48 45 46 45 40 43 45 30 21 26 27 24 26 27 25 22 23 26 27 27 25 24 28 33 37 38 37 35 32 30 29 29 32 36 42 47 52 56 59 61 63 65 66 66 66 66 66 67 66 65 63 62 61 61 62 63 64 64 64 63 62 59 57 56 55 56 57
24 21 18 20 22 23 23 23 27 30 31 30 28 27 32 37 35 39 46 47 49 45 35 35 42 36 22 24 31 25 24 30 27 25 27 29 29 27 25 23 24 30 34 35 33 30 27 26 27 30 35 41 48 54 59 63 65 66 66 67 67 67 66 65 64 63 63 62 61 59 58 58 58 58 59 59 59 57 57 56 55 54 53 53 54 54
23 18 18 22 23 23 22 27 30 30 34 33 27 28 34 36 37 40 41 43 46 37 31 34 26 19 25 28 25 26 32 33 29 31 34 33 32 28 23 22 25 31 33 31 27 24 24 27 32 40 48 55 62 66 68 70 70 69 69 68 67 66 64 61 60 59 59 58 56 54 53 54 55 56 55 55 55 55 53 53 52 51 51 51 52 52
21 17 19 24 24 21 23 30 30 30 34 32 29 33 34 35 39 40 38 37 34 29 31 29 9 12 31 31 25 33 37 32 32 36 36 35 32 26 20 21 26 29 28 25 24 25 30 37 45 54 61 66 69 70 70 70 70 69 68 66 64 62 60 57 55 54 53 52 50 49 51 54 56 57 57 55 55 54 52 51 51 50 50 51 52 52
19 17 19 24 23 20 27 32 30 32 32 29 33 34 34 38 38 36 37 31 26 29 29 18 9 14 21 23 30 36 33 30 34 36 36 35 28 21 18 20 24 25 23 23 27 33 43 53 62 67 70 70 70 70 70 70 69 67 64 62 60 57 55 52 50 50 49 48 48 51 54 57 58 59 59 58 57 56 54 52 51 50 50 50 51 51
20 17 20 24 22 22 30 32 31 32 29 31 35 32 35 39 35 34 32 24 24 27 18 14 20 15 15 26 34 31 28 30 34 35 34 30 22 17 17 20 20 19 23 31 40 50 59 66 70 71 71 71 71 70 69 67 64 60 57 56 54 52 49 48 48 48 47 48 51 54 56 57 58 60 61 62 60 58 56 54 52 51 51 51 51 51
18 16 20 24 21 24 32 32 32 30 29 34 32 33 39 38 37 34 22 25 31 19 7 15 23 13 17 32 31 24 27 31 33 33 29 22 18 17 17 16 18 26 38 50 59 64 67 68 69 70 71 70 70 68 64 61 56 52 50 50 49 47 46 47 47 47 48 50 53 56 57 57 58 60 61 62 61 58 56 55 54 52 52 51 51 51
16 13 20 24 20 26 35 34 33 30 31 34 31 39 45 39 41 32 17 27 27 8 4 15 20 15 13 22 24 24 28 31 33 30 24 20 17 15 15 22 34 47 57 64 67 67 67 68 69 69 69 68 66 63 58 53 48 46 47 46 46 46 46 47 47 48 50 51 54 56 57 58 59 60 60 60 58 56 55 55 54 53 51 50 50 50
16 12 21 24 20 28 37 36 34 31 31 30 31 44 45 39 42 27 17 23 11 4 11 17 27 27 13 15 23 28 32 34 31 26 22 21 16 17 28 42 54 61 65 66 67 68 70 72 71 70 68 65 62 58 51 46 45 45 45 45 45 46 46 47 48 49 50 51 53 56 57 58 59 58 57 56 55 54 54 54 53 52 51 50 49 49
20 15 22 25 23 32 40 39 35 32 31 29 35 44 33 23 25 14 11 13 3 11 21 26 33 24 12 17 26 31 35 31 26 23 20 18 21 32 46 56 62 64 65 67 68 69 69 69 68 66 62 59 55 50 45 41 41 42 44 44 45 46 46 46 48 50 51 53 54 56 57 57 55 53 52 52 52 53 53 54 53 52 51 49 48 48
25 18 25 27 24 33 40 37 34 33 30 28 34 35 21 9 8 5 7 8 8 21 34 35 24 11 11 24 30 32 30 25 24 22 20 25 36 47 55 60 63 65 65 65 65 63 61 60 59 57 54 50 47 44 42 40 40 43 44 45 45 46 46 47 50 52 55 55 55 55 56 54 51 49 49 49 50 51 52 53 53 51 49 48 47 46
22 15 23 26 24 33 37 28 27 27 22 24 30 27 23 17 6 4 7 7 10 23 35 29 10 5 19 30 31 30 25 23 25 25 30 43 52 56 60 63 64 63 62 61 59 57 55 55 53 51 49 46 45 46 46 46 45 44 45 45 46 47 48 50 53 55 56 56 55 55 55 52 49 48 48 48 48 49 51 51 51 49 47 45 44 42
21 15 21 23 25 34 32 24 25 24 18 23 29 28 28 23 12 13 16 17 20 20 21 15 7 16 29 31 29 25 22 24 28 37 50 57 59 61 62 63 63 61 59 58 56 55 54 52 50 48 47 47 47 48 50 51 49 45 44 45 47 49 51 53 54 55 55 54 55 56 55 51 49 49 48 47 47 49 50 50 48 45 44 42 40 37
23 22 20 20 28 34 28 23 24 23 21 26 30 31 27 17 12 15 20 25 24 14 10 8 14 29 30 23 22 21 22 30 40 52 59 58 60 62 62 63 61 58 57 55 54 54 53 50 48 48 49 49 49 51 54 53 48 45 45 47 49 51 52 52 53 54 54 54 56 57 54 51 50 49 49 49 48 48 48 46 44 42 39 37 35 34
25 27 22 21 30 34 25 21 22 21 24 28 29 29 25 15 11 14 14 16 14 8 11 15 23 30 21 16 24 27 29 41 53 58 56 56 61 63 63 62 57 56 55 54 54 53 51 49 49 50 52 53 56 57 54 48 44 44 45 47 49 50 50 50 52 53 53 55 56 54 52 50 50 50 50 50 49 47 46 43 40 38 35 33 33 34
26 25 22 25 33 32 22 18 20 19 22 27 26 25 24 13 10 16 12 7 7 6 11 22 28 22 16 22 30 32 39 51 56 54 55 60 64 64 64 59 56 57 56 54 54 52 50 50 52 55 58 61 61 56 47 40 39 41 42 45 47 49 51 52 52 53 53 53 52 51 51 52 52 51 50 49 47 45 42 39 36 34 32 31 33 34
27 19 17 28 36 29 20 19 20 18 21 29 29 26 25 13 10 18 12 6 8 6 7 20 21 13 20 31 31 36 49 54 51 53 59 64 66 65 62 58 58 59 56 54 53 53 53 54 57 60 61 59 52 42 34 33 36 40 43 47 50 51 52 51 50 50 50 50 50 52 53 53 52 50 48 46 43 41 38 35 32 32 32 32 33 34
29 18 18 33 37 26 20 21 18 14 20 30 31 28 27 24 24 23 12 7 7 5 6 11 11 18 32 31 30 45 55 51 51 58 64 67 68 64 59 59 61 58 55 54 53 55 58 61 62 60 55 51 43 35 33 36 39 43 46 48 48 48 48 47 47 48 49 51 53 54 53 51 49 47 44 42 39 37 34 32 30 31 32 33 33 32
28 18 22 38 37 24 19 16 10 11 20 30 31 28 27 30 32 21 9 11 13 11 12 8 9 24 31 25 36 53 54 52 57 63 66 68 65 60 58 60 59 55 55 55 57 61 64 64 61 56 52 50 45 39 38 38 40 41 42 43 43 43 44 45 47 50 52 53 53 51 49 46 44 42 39 37 35 33 31 30 30 31 33 33 31 27
29 20 27 38 32 21 17 13 10 16 27 33 32 31 30 31 30 16 7 17 24 22 22 16 14 21 25 29 47 55 52 56 62 64 67 66 60 57 60 61 58 56 57 59 62 65 65 62 59 56 55 51 47 43 40 39 40 40 40 41 42 43 45 47 50 51 51 50 47 45 43 41 38 36 34 33 31 30 29 30 31 32 33 30 26 21
27 22 32 39 31 25 21 19 20 24 31 35 33 33 32 30 29 19 12 18 21 19 20 15 12 22 34 43 51 52 54 59 63 66 66 62 59 60 62 61 57 58 61 63 66 65 63 62 59 58 56 52 49 47 45 42 40 40 41 41 43 46 47 49 49 47 45 43 41 38 37 36 34 32 30 29 29 28 29 31 33 32 29 24 19 15
24 23 31 31 24 23 23 23 27 32 35 34 33 33 32 31 28 22 18 17 12 13 20 13 13 33 50 51 51 54 58 62 66 67 64 59 59 62 63 59 56 59 64 66 67 64 63 62 58 56 56 54 52 52 49 47 44 43 45 46 47 47 46 45 43 41 39 37 36 34 33 31 30 29 28 27 28 29 30 32 31 27 21 16 12 11
25 25 26 20 10 10 14 18 25 33 35 33 32 31 31 31 27 22 22 19 13 18 22 15 23 47 59 55 56 58 60 66 70 67 62 59 60 63 63 57 56 61 65 66 66 64 63 61 57 55 54 53 52 51 50 49 47 45 44 44 43 43 41 39 37 35 35 33 32 31 30 29 28 27 27 28 30 31 31 28 24 18 13 11 9 8
27 26 26 23 18 18 21 23 24 27 30 32 31 30 30 28 24 23 24 23 22 27 27 25 33 51 60 58 57 60 64 69 70 65 61 60 62 65 63 60 61 65 66 66 66 64 64 63 59 56 54 52 50 48 46 46 45 43 41 39 38 37 36 35 34 32 31 30 29 29 28 27 27 27 28 30 31 30 26 21 16 11 9 9 7 5
28 27 28 30 31 30 27 25 23 23 27 30 30 29 28 24 22 24 26 26 29 27 31 43 47 49 56 57 55 61 68 69 66 63 60 62 64 65 64 64 66 67 67 67 66 65 65 64 60 55 51 49 47 46 44 42 41 40 39 37 35 34 34 33 32 30 29 28 27 27 27 27 27 29 31 31 29 24 19 14 11 9 8 7 5 2
27 28 30 33 36 31 23 23 26 27 28 29 26 24 23 21 22 27 27 31 36 30 34 48 50 47 53 54 56 64 67 65 64 61 60 63 64 64 64 66 68 68 68 67 67 67 66 64 59 53 50 48 45 44 44 41 39 37 36 35 34 33 32 31 30 29 27 27 27 26 27 28 29 31 30 27 22 18 14 11 9 8 7 5 3 3
27 30 31 35 37 30 23 27 32 31 30 26 21 18 19 21 24 28 30 37 42 38 39 44 45 47 50 51 58 65 63 63 64 62 61 63 62 62 65 66 68 68 67 67 67 68 65 62 57 51 49 48 46 44 43 40 38 36 34 34 33 31 30 29 28 28 27 27 27 27 28 30 30 28 24 20 17 14 12 9 8 7 6 5 5 6
29 31 31 35 38 31 28 33 36 31 27 19 14 15 19 25 28 29 36 44 46 45 44 42 43 49 51 53 60 64 62 62 63 62 62 60 59 62 65 66 68 68 67 66 66 66 64 59 55 51 48 46 44 43 41 39 37 36 34 33 31 30 29 29 28 27 27 27 27 29 30 29 25 21 18 16 14 12 10 8 7 6 6 7 8 8
30 31 33 35 36 33 33 37 37 27 16 10 12 19 24 28 30 33 42 48 46 46 47 44 45 49 53 59 63 63 62 62 61 61 61 60 61 63 65 67 68 67 67 66 65 66 62 55 51 49 46 44 43 42 41 39 38 36 34 33 31 30 29 28 27 27 26 27 29 30 27 23 19 16 15 14 12 11 9 7 7 8 9 9 9 10
29 32 34 32 32 34 36 39 34 17 6 8 18 25 27 28 31 41 50 50 45 43 43 43 46 50 56 64 65 63 62 60 60 61 59 60 63 64 65 67 67 66 67 65 65 64 60 53 49 47 45 43 42 41 40 40 38 36 35 33 32 30 29 27 27 27 27 28 29 27 21 17 15 15 14 12 11 9 9 10 10 10 10 10 11 11
29 32 32 29 30 33 37 42 31 8 3 16 23 24 25 27 36 48 53 50 46 43 41 44 50 56 62 65 64 63 61 60 60 59 57 59 63 64 66 67 66 66 66 65 65 63 56 51 47 45 44 42 40 40 39 38 36 35 34 32 31 29 28 27 27 27 28 30 27 21 15 14 14 13 12 11 11 11 12 12 11 11 11 11 11 12
30 31 30 29 29 31 38 41 24 8 12 20 20 21 25 32 44 52 52 49 44 41 44 51 57 61 63 62 61 61 61 60 60 58 57 60 62 63 65 65 65 66 65 64 65 60 53 49 46 45 45 44 43 42 39 37 35 33 31 30 29 28 27 27 27 27 30 29 22 15 12 13 12 11 11 12 13 13 13 12 12 12 12 12 12 12
30 30 29 30 27 26 32 27 12 11 19 16 15 23 32 42 50 53 54 51 40 38 49 57 60 62 62 61 60 59 59 61 60 58 59 61 61 62 63 64 64 65 64 63 63 58 50 46 45 46 46 46 45 43 40 36 33 31 30 29 28 27 26 26 26 27 28 24 16 11 11 12 11 11 12 13 13 13 13 13 13 13 13 13 13 13
29 29 28 27 23 24 28 25 20 19 16 12 19 29 37 47 50 48 52 47 34 39 54 58 59 62 61 60 60 59 60 62 61 60 60 62 61 61 61 61 62 62 62 62 60 56 48 43 43 45 46 45 43 41 39 36 32 30 28 27 26 25 24 24 25 26 25 18 11 10 11 11 11 12 12 12 13 13 13 13 13 14 14 14 13 13
28 27 26 24 23 24 26 24 20 14 9 15 26 34 42 48 47 45 46 37 33 45 56 57 58 61 59 58 59 59 61 64 64 63 63 62 62 61 61 61 60 60 61 60 58 53 47 43 44 44 44 43 40 38 37 35 32 30 27 26 25 23 23 23 23 25 20 11 7 9 10 10 10 11 11 12 12 12 13 13 13 13 14 13 12 12
27 26 25 24 24 24 21 15 9 7 10 20 30 38 46 47 47 45 36 29 39 53 56 56 58 58 56 57 57 57 59 63 65 64 62 61 61 60 61 61 60 60 60 58 57 52 45 43 44 44 42 40 38 37 37 35 33 31 27 26 24 23 22 21 22 22 15 7 6 7 8 8 9 9 10 10 11 12 13 13 13 12 12 11 11 12
26 26 26 25 25 25 20 14 12 12 16 24 34 44 48 46 45 38 25 30 51 57 52 55 57 54 54 55 54 54 54 56 61 62 60 60 60 59 61 61 60 61 60 58 56 51 44 41 43 42 40 39 38 38 37 35 34 32 29 27 25 23 22 20 20 20 12 4 4 5 6 6 7 8 8 9 10 11 12 12 12 12 11 11 12 14
26 26 26 26 28 27 20 17 20 20 20 29 40 46 46 44 40 31 27 42 56 53 51 55 54 52 53 52 51 53 51 51 55 58 58 59 59 60 61 60 59 60 60 58 56 52 45 41 42 40 38 38 38 38 37 36 35 33 31 28 25 23 21 19 19 17 9 2 3 4 4 5 6 7 7 8 9 11 12 12 12 12 11 12 14 17
26 26 26 27 28 27 23 23 23 22 26 37 44 45 44 41 37 36 41 49 51 50 52 53 51 51 52 50 50 51 50 51 53 55 57 59 60 60 61 60 60 60 59 57 55 51 46 42 42 40 37 37 39 39 38 37 35 34 31 28 25 23 20 17 16 14 6 2 2 3 4 5 6 7 7 8 9 11 11 12 12 11 11 13 16 18
24 24 26 28 27 24 23 21 16 19 32 43 44 43 44 41 39 43 47 47 47 50 52 50 50 51 50 50 51 50 50 52 53 55 57 58 59 60 60 61 61 61 60 57 53 51 46 42 41 40 37 38 40 40 39 37 35 33 30 27 25 22 19 15 13 10 3 3 3 3 4 5 6 7 7 8 9 10 10 10 10 10 11 14 17 17
22 23 25 26 25 21 20 18 17 25 37 42 40 41 43 42 42 44 46 47 49 50 50 50 50 49 49 51 50 49 50 52 53 55 57 58 59 60 60 61 61 61 60 57 53 50 46 42 40 39 37 38 40 40 39 38 34 32 29 26 23 21 17 13 10 6 2 5 4 4 5 6 6 6 6 7 8 9 9 9 8 8 10 13 15 14
23 25 26 27 26 24 24 25 29 34 39 39 40 41 42 42 43 44 46 48 49 49 50 50 49 48 49 49 49 49 50 52 53 55 56 58 60 60 60 61 61 61 60 57 54 51 47 42 40 38 35 37 39 40 39 38 34 31 29 26 23 20 16 11 7 4 4 7 6 5 5 5 5 5 6 7 8 8 8 8 8 9 10 12 14 13
26 27 28 30 31 31 31 31 34 38 38 38 40 41 42 43 43 44 46 47 48 48 49 49 48 48 48 48 48 48 49 51 53 54 55 57 59 60 61 61 61 61 60 57 54 51 48 43 40 38 36 36 38 40 39 37 35 32 30 26 23 20 16 10 6 3 7 9 8 6 6 5 6 6 6 6 7 8 8 7 7 8 9 11 13 12
27 28 30 32 33 34 34 34 36 39 39 38 39 41 42 42 43 44 46 47 47 48 48 48 48 48 47 47 48 47 48 51 53 54 55 57 59 60 61 62 61 61 60 57 54 51 48 44 41 38 37 37 39 40 39 37 34 32 30 26 22 19 16 10 5 5 10 11 9 7 6 6 6 6 6 6 7 8 7 6 6 6 8 10 11 10
27 29 31 33 35 35 36 37 38 39 38 38 40 42 42 42 43 44 46 47 48 48 47 47 47 47 46 46 47 47 48 50 52 53 55 56 58 60 61 62 62 62 61 58 53 50 48 45 41 38 38 38 39 40 39 37 34 32 29 25 21 19 16 10 5 7 12 12 10 8 7 6 6 5 6 7 7 7 6 5 4 4 6 8 8 7
28 29 31 34 36 37 37 38 40 40 39 39 42 43 43 43 44 45 46 47 48 48 47 46 45 45 46 46 47 48 49 49 50 52 54 55 58 60 61 62 63 62 61 58 53 49 48 45 40 38 37 37 39 39 38 36 34 32 29 25 21 18 15 10 5 9 13 13 10 9 8 7 6 5 6 6 6 6 5 4 4 4 6 7 7 7
28 29 31 34 36 36 37 38 40 41 40 41 42 43 43 43 44 45 46 47 48 49 49 47 45 44 45 46 47 48 48 48 50 51 52 54 56 58 60 62 62 62 61 58 53 49 47 44 40 37 36 36 38 39 38 36 34 32 29 25 22 18 14 9 7 12 14 13 11 9 8 7 6 6 6 6 5 5 4 4 4 6 7 8 8 8
28 29 31 32 34 36 37 38 39 40 40 41 42 43 43 43 44 45 46 47 48 50 50 48 47 45 45 45 46 47 47 48 49 50 51 53 54 57 60 61 62 62 61 58 53 49 47 45 41 37 36 37 38 39 38 36 34 32 29 26 22 17 12 8 9 13 14 12 11 9 8 7 6 5 5 4 4 4 4 3 5 6 7 7 8 10
Wind_Direction
0 354 353 355 357 357 356 354 348 344 339 337 334 329 327 324 323 326 328 329 330 326 323 326 324 324 330 335 338 351 354 343 339 336 333 329 324 320 318 310 297 282 273 267 264 262 259 257 256 256 257 259 261 264 267 271 276 281 287 293 297 300 302 304 305 306 308 308 308 308 308 308 307 306 305 303 303 302 301 300 299 298 298 297 295 294
0 357 357 359 359 359 358 353 347 344 342 338 337 332 329 328 325 326 329 331 332 326 323 326 324 326 334 339 349 358 344 338 338 334 330 327 324 322 320 313 299 283 270 264 260 257 254 252 252 254 257 261 265 271 278 285 291 295 299 302 304 306 308 309 310 312 313 314 314 314 313 312 311 310 309 308 306 305 304 303 302 301 299 298 297 296
2 359 0 1 1 2 357 351 348 345 343 340 339 333 330 331 329 327 330 333 331 324 323 327 326 328 335 342 348 342 337 339 336 332 331 330 328 325 322 313 295 276 264 258 253 250 249 250 253 258 264 272 281 289 295 300 303 304 305 307 309 311 312 313 314 314 315 315 315 315 314 313 311 310 309 308 307 306 305 304 303 302 300 298 297 296
3 0 3 5 3 1 355 353 350 343 342 343 340 334 331 333 332 327 329 332 329 323 323 327 327 328 333 337 336 337 338 338 334 334 336 332 330 324 316 304 280 263 254 248 246 245 249 254 261 271 282 291 298 303 305 307 309 311 312 313 314 315 316 316 316 316 316 315 315 313 312 311 309 308 308 307 306 305 304 303 301 300 297 296 294 293
5 4 6 7 2 359 358 354 348 342 341 344 342 336 332 332 330 325 327 329 326 324 326 330 329 325 326 332 335 340 340 338 337 337 337 335 332 323 309 290 263 248 241 239 241 246 256 268 281 293 301 304 307 310 311 313 315 317 317 318 318 318 318 318 318 317 316 315 313 312 311 310 310 310 309 309 308 306 304 302 300 298 296 294 292 290
6 6 7 6 0 360 359 351 348 344 340 343 344 338 334 331 328 327 328 327 323 323 328 332 331 318 322 332 338 341 339 337 337 337 338 338 332 323 305 278 252 238 235 237 244 257 277 291 301 307 310 311 313 314 316 317 319 320 320 320 320 320 319 318 318 316 315 314 313 312 312 314 315 314 313 313 311 308 305 303 301 298 296 294 292 290
6 8 7 3 358 357 355 349 350 346 339 341 343 338 334 330 328 328 329 325 317 314 322 329 322 291 319 335 340 337 336 334 336 338 338 336 330 319 295 262 242 234 235 245 263 284 301 308 310 312 314 315 317 318 319 319 320 321 321 321 320 319 319 318 317 316 315 315 315 315 317 319 319 318 316 314 312 308 305 302 300 297 295 293 291 290
6 8 3 357 355 352 352 352 352 347 341 340 341 337 333 330 329 329 330 326 314 314 324 341 342 296 309 334 335 330 332 332 334 336 335 332 326 310 280 251 240 240 252 275 295 307 312 313 315 316 318 319 320 321 322 322 322 322 322 320 319 319 319 318 317 316 317 317 317 318 319 320 319 318 315 313 311 307 303 299 297 295 293 291 290 288
5 1 356 354 354 354 356 356 351 349 344 342 342 336 331 331 331 334 335 331 325 324 332 2 356 326 302 323 327 324 327 331 334 334 331 325 315 294 267 249 251 268 293 308 314 315 315 316 318 320 321 321 321 322 322 322 322 322 320 318 319 319 319 318 316 316 316 316 317 318 318 318 317 316 314 312 311 308 303 299 297 295 293 292 290 289
5 360 356 355 356 356 357 355 352 352 349 345 341 331 331 334 337 340 343 339 334 329 340 353 351 338 307 316 320 321 327 332 332 328 322 314 297 278 264 266 292 311 317 318 318 318 319 320 320 321 320 320 320 321 322 322 322 320 318 317 318 318 317 315 313 312 313 313 314 315 316 316 316 315 314 312 310 307 303 300 298 297 295 293 291 289
11 7 359 358 360 357 355 354 353 355 351 347 340 333 334 339 342 343 343 341 336 321 341 342 339 335 312 312 317 323 329 329 326 321 314 301 279 272 292 313 321 322 321 321 321 321 322 322 322 322 321 321 321 321 321 320 319 317 317 317 316 314 313 311 309 309 309 310 311 313 314 314 315 314 312 309 307 304 301 299 298 297 296 293 290 288
17 10 2 2 2 357 354 352 353 356 354 348 342 343 344 344 345 342 337 346 342 278 330 335 330 326 301 299 317 324 327 324 320 317 307 294 289 311 325 325 324 324 324 324 324 323 322 321 320 319 319 319 319 319 318 317 317 316 315 313 310 308 308 306 304 303 304 305 307 310 312 313 312 310 308 305 303 301 299 298 298 297 296 293 291 289
14 8 5 6 1 358 354 349 351 355 354 349 349 354 358 351 346 341 331 344 294 286 318 326 325 315 283 305 320 323 322 319 318 313 302 303 318 326 326 326 326 326 326 325 323 322 321 319 318 318 318 317 316 316 314 314 314 310 307 305 302 301 300 298 296 298 301 304 307 310 311 311 310 307 304 303 300 299 298 298 298 297 296 294 292 290
11 9 4 5 1 358 355 350 351 352 352 355 360 5 12 359 338 322 319 327 301 304 315 322 322 295 297 319 320 320 319 318 319 314 310 321 326 326 328 328 327 325 324 323 322 322 321 320 319 319 319 318 317 316 315 314 311 307 303 300 296 294 292 292 296 301 305 308 310 312 313 311 308 305 304 303 301 300 299 298 298 298 296 294 293 291
5 3 358 2 3 356 353 354 353 350 352 359 4 7 0 350 326 273 299 302 302 306 312 322 328 304 321 322 319 321 321 322 324 324 327 329 328 328 328 327 326 326 326 324 323 322 321 321 321 320 318 317 317 317 318 317 313 308 302 296 292 291 292 296 301 306 308 311 313 314 314 312 309 307 305 303 302 302 301 300 299 298 297 295 293 291
354 350 356 0 0 354 352 355 353 352 356 354 357 360 352 345 319 291 295 298 301 302 309 319 319 324 324 319 319 321 321 326 330 332 331 329 327 327 327 327 328 328 326 324 323 322 322 323 322 319 316 314 313 314 317 317 311 304 297 293 293 294 297 301 304 307 309 311 312 313 313 312 311 309 306 304 303 303 303 302 300 299 296 294 292 290
347 346 1 3 357 355 353 356 355 355 357 352 353 355 349 340 327 316 310 312 315 307 304 311 316 325 324 317 321 321 320 328 333 331 329 327 328 329 330 330 329 327 326 326 325 324 325 324 320 316 314 313 313 315 317 316 310 301 296 294 296 299 301 304 305 307 308 309 311 312 312 311 310 308 307 306 305 304 304 303 301 299 296 294 292 290
344 343 358 3 356 354 353 354 355 353 355 355 353 351 347 342 346 344 323 315 323 307 302 316 322 325 325 323 324 322 326 333 332 329 329 331 332 332 330 330 329 329 329 327 326 326 326 323 318 316 314 314 316 317 316 313 308 304 301 300 302 303 305 306 307 307 308 309 311 311 311 309 308 308 308 308 307 306 304 303 302 299 296 294 292 292
349 342 349 358 355 353 352 353 354 352 352 354 353 351 352 347 332 339 329 301 323 320 302 315 321 323 324 324 324 328 335 335 331 330 332 333 333 331 330 331 331 331 328 327 328 328 325 321 318 317 316 316 317 318 315 310 306 304 303 304 305 306 307 307 308 308 308 310 311 310 309 308 307 308 308 308 308 307 305 304 302 299 296 295 294 295
353 339 333 348 352 351 352 352 355 351 344 349 353 353 355 351 321 328 320 276 315 324 299 313 318 327 330 325 326 334 336 333 331 332 333 332 332 332 332 332 331 330 329 329 329 327 324 321 319 318 318 319 320 319 316 310 306 304 303 304 305 306 307 307 307 308 310 310 309 308 308 307 308 308 308 308 308 307 306 304 302 299 298 298 298 299
354 339 322 341 352 357 355 352 351 342 338 347 353 353 351 346 339 334 318 290 310 301 303 315 308 317 324 324 328 333 333 330 330 331 331 331 332 332 332 331 331 331 332 331 329 326 325 323 322 322 322 324 325 320 311 306 304 304 304 305 306 307 308 308 309 310 309 308 307 308 308 308 309 308 308 309 308 307 305 303 302 301 301 302 302 301
352 342 326 338 350 356 352 351 344 327 339 347 349 350 346 341 344 346 327 318 320 305 304 296 282 310 319 325 330 331 330 327 327 329 331 333 333 332 332 332 332 334 334 332 330 328 327 326 327 329 329 330 329 323 316 313 311 310 309 309 309 309 309 308 309 308 307 307 308 308 308 308 309 309 309 308 307 306 305 304 305 304 304 305 303 299
350 346 336 338 347 353 352 357 348 334 340 343 343 344 339 335 340 342 306 311 315 311 308 294 284 305 318 329 331 329 326 325 328 331 332 333 333 332 333 334 335 336 335 332 330 330 330 331 333 333 332 333 331 329 327 323 320 316 315 313 311 309 307 307 307 307 308 310 310 309 309 310 310 310 309 308 307 307 307 308 308 307 306 305 301 294
351 350 342 341 347 351 350 350 345 339 339 339 338 337 332 329 332 325 303 307 306 307 316 308 287 305 320 328 329 326 325 327 332 334 333 334 334 334 335 337 337 336 335 333 332 333 334 336 337 334 334 336 334 333 333 329 324 318 315 312 309 308 308 308 309 311 313 313 312 312 312 312 312 311 310 310 310 311 311 311 310 308 307 304 299 295
354 351 346 347 351 350 347 345 339 335 335 333 330 329 325 324 326 323 324 322 302 306 323 314 287 307 320 328 328 327 329 331 334 334 334 335 335 336 338 339 337 334 333 333 334 337 338 339 339 336 336 337 335 334 332 327 322 317 313 312 312 312 312 313 314 316 316 316 315 316 315 314 315 314 314 314 314 314 314 312 309 308 306 303 300 299
352 351 352 355 352 333 325 322 323 324 324 326 326 324 322 324 325 325 330 329 315 313 312 290 289 309 322 330 330 331 333 333 334 335 337 337 337 338 340 339 336 334 333 335 338 339 340 340 341 339 336 334 331 328 325 321 319 319 318 319 318 318 318 318 319 320 320 320 319 318 318 319 319 318 319 318 317 316 315 313 311 310 308 308 307 302
350 349 350 346 333 320 314 314 319 319 316 320 324 320 321 326 321 321 330 330 326 318 309 310 313 315 323 332 331 332 334 333 335 337 338 339 339 339 340 339 338 336 337 339 340 340 341 341 342 340 335 331 329 328 326 324 326 328 329 328 326 324 324 324 325 325 324 323 322 322 323 323 323 323 322 320 318 319 319 316 314 314 314 316 314 306
348 346 345 340 335 334 329 323 327 324 317 319 321 317 320 321 314 321 329 332 336 327 316 326 329 321 324 331 331 332 333 333 336 338 339 340 340 340 341 341 340 340 341 341 341 342 343 342 342 341 337 333 332 331 332 333 334 334 333 333 332 331 331 330 330 330 328 327 327 327 327 327 327 325 323 321 322 323 324 322 320 321 325 328 329 335
347 345 342 338 338 341 337 330 334 333 324 321 318 317 319 316 317 325 328 334 339 330 316 324 327 322 325 331 331 332 333 334 336 339 340 341 341 341 341 342 342 343 343 342 342 344 344 342 342 343 339 337 337 336 337 339 339 339 337 337 337 336 335 334 333 333 332 332 332 331 331 330 328 326 324 325 328 329 329 327 325 330 340 352 15 52
346 344 341 337 339 345 344 340 343 337 326 319 316 321 322 318 322 326 329 337 337 326 321 323 322 323 329 331 330 332 334 335 338 341 343 342 341 341 342 342 344 345 344 344 344 344 343 342 342 343 341 339 340 340 340 342 342 343 343 341 340 339 338 337 336 336 335 335 335 334 333 331 328 328 330 333 335 335 334 332 335 345 5 32 52 54
344 342 341 336 337 348 350 345 345 337 324 315 316 327 327 324 328 331 334 337 335 329 329 326 322 327 333 331 330 334 336 338 341 343 344 342 341 342 342 343 345 345 344 345 345 343 343 342 342 342 342 341 341 341 342 342 344 345 345 343 342 342 340 339 338 338 338 338 336 334 333 333 334 337 341 342 344 346 346 350 1 19 46 57 52 40
343 340 342 338 335 343 347 346 346 338 317 307 326 333 332 330 332 333 333 336 335 331 330 328 327 331 331 331 333 337 338 339 342 344 344 343 343 343 343 344 345 345 344 345 346 343 343 343 342 341 342 342 342 342 342 343 344 345 344 344 344 343 341 340 338 339 340 338 336 335 336 340 345 348 349 352 358 2 8 24 44 60 64 55 44 38
344 341 343 341 333 336 344 345 345 337 301 330 341 336 333 332 332 332 333 337 337 333 331 330 330 330 330 333 336 337 338 340 343 345 344 343 344 344 344 345 345 345 345 346 346 344 343 343 342 342 342 342 342 341 342 342 342 343 344 344 344 341 340 340 339 340 341 339 338 340 345 353 357 355 357 6 15 25 43 60 68 68 58 48 47 47
345 342 344 342 332 334 342 344 347 360 348 337 335 333 333 333 333 333 335 338 338 336 335 332 330 331 334 337 337 337 339 341 343 346 345 344 345 344 344 345 345 345 346 346 346 345 342 341 342 341 341 341 340 339 339 339 339 340 342 342 341 340 339 340 341 341 341 340 342 350 358 3 4 5 11 26 42 56 66 70 68 60 52 51 53 51
345 343 344 343 335 333 340 347 358 14 332 325 325 332 336 336 335 334 336 339 339 337 337 336 335 336 337 337 338 338 340 342 345 348 347 345 345 344 344 345 345 345 347 347 346 345 342 341 341 340 340 339 338 337 337 337 338 339 340 339 339 339 339 340 342 343 341 342 349 3 10 10 15 23 34 50 62 67 68 66 61 58 58 60 59 56
345 344 344 343 339 336 339 345 348 320 318 321 332 339 338 338 339 336 336 341 342 339 339 338 337 337 337 338 340 340 341 343 346 349 348 345 345 345 344 344 345 346 347 347 346 345 343 342 340 339 339 338 337 336 336 337 337 337 338 338 338 339 340 340 343 344 343 346 358 15 18 22 34 44 53 62 65 64 65 65 63 64 66 65 63 62
344 343 344 344 343 340 335 328 322 321 323 335 344 342 338 338 339 335 331 336 343 341 339 337 335 337 338 339 341 343 342 342 346 349 348 346 346 346 344 344 346 347 347 347 346 345 343 342 341 339 338 338 339 339 338 338 337 336 336 337 338 339 339 340 344 346 346 352 11 23 27 39 51 55 59 61 61 64 68 68 67 67 68 69 69 66
343 342 344 343 340 340 336 330 331 333 331 339 341 338 336 338 338 332 327 331 343 342 337 336 336 337 338 339 342 344 343 342 346 349 347 346 346 345 344 345 347 348 347 347 347 346 343 342 342 341 339 341 342 342 342 341 339 337 337 336 337 338 338 341 346 349 350 360 22 29 41 55 59 58 57 56 60 68 70 68 68 71 72 73 67 57
343 341 344 343 340 340 337 327 317 300 312 330 334 334 337 339 338 334 328 332 342 340 336 336 337 337 338 339 342 344 343 342 344 347 346 345 346 345 344 346 348 348 348 348 348 348 345 342 342 342 341 343 344 344 344 344 343 342 340 338 337 336 338 343 348 351 354 10 30 37 56 63 61 60 57 57 63 67 67 66 70 78 80 71 56 45
344 342 342 343 340 338 332 317 309 308 316 327 332 334 337 338 338 339 335 333 338 338 336 336 337 336 338 339 341 344 345 341 341 344 345 344 344 344 345 347 348 348 349 350 350 349 347 344 343 343 343 345 346 345 345 346 346 346 345 342 338 336 338 343 349 353 359 24 37 49 71 69 66 64 58 62 68 67 69 73 76 80 75 59 47 39
346 343 342 341 339 338 330 313 312 317 324 332 335 335 337 338 340 340 331 329 334 336 336 337 337 337 338 340 341 344 344 342 341 343 344 343 344 345 346 347 348 348 350 351 351 349 348 346 346 346 346 346 346 345 345 347 348 348 346 344 339 336 337 342 350 356 4 46 55 61 80 77 76 73 66 70 72 73 82 86 81 76 66 54 44 34
344 341 339 339 339 338 330 318 317 326 336 337 334 334 338 341 338 332 329 331 334 335 336 338 339 338 339 341 343 343 344 344 343 344 344 344 345 346 347 347 348 349 351 352 352 350 349 347 348 348 347 347 347 346 346 348 349 348 346 344 340 337 337 342 351 358 9 93 96 78 90 88 85 85 83 81 78 83 94 96 88 79 67 54 43 33
341 338 336 337 339 336 330 327 329 331 332 333 333 334 338 339 335 331 333 335 336 336 337 340 340 339 340 342 344 344 344 344 345 346 346 345 345 347 348 348 348 350 352 352 353 352 350 349 349 349 348 348 348 347 347 349 350 348 348 346 342 338 339 345 354 3 29 138 132 102 105 100 93 93 93 88 87 92 99 99 93 82 65 51 44 35
339 336 332 333 335 330 323 325 328 325 327 332 335 335 336 336 336 334 335 337 338 338 339 340 341 341 341 343 345 345 345 345 347 348 347 346 346 347 348 348 349 351 352 353 354 354 352 350 351 351 349 349 349 349 349 350 351 352 351 349 344 341 343 350 359 14 91 149 144 122 117 109 100 101 97 93 97 98 98 96 88 75 59 48 45 37
336 335 331 330 331 327 324 327 330 331 334 336 335 334 336 337 337 337 337 339 340 340 340 341 343 343 342 343 345 346 345 346 348 349 348 348 347 347 349 350 350 351 352 353 354 354 354 352 352 352 351 350 350 351 351 351 353 356 356 353 347 345 349 356 3 26 133 152 149 136 127 113 107 110 107 103 102 98 97 94 81 69 56 44 42 38
332 335 333 332 332 331 334 338 336 335 338 337 334 336 338 338 338 338 339 340 340 341 342 342 343 344 344 343 345 347 347 347 349 350 349 348 348 348 349 350 350 351 353 354 355 355 355 354 353 353 353 352 353 353 354 353 355 358 359 356 351 349 356 7 15 79 144 152 149 143 134 116 110 114 113 109 102 95 98 96 81 70 56 44 41 35
331 333 333 334 332 330 335 340 338 337 339 337 334 336 338 338 339 339 340 341 342 342 343 343 343 344 344 344 345 348 349 349 350 350 349 349 349 349 349 350 351 352 354 355 356 356 355 355 354 354 355 355 355 356 356 356 359 0 0 359 355 356 5 17 34 116 145 150 149 145 138 119 111 110 106 104 97 94 98 97 84 70 54 45 41 30
328 331 332 332 331 331 335 339 338 338 340 338 335 337 340 340 339 340 340 342 343 343 344 344 344 344 345 345 346 349 351 352 351 350 350 350 350 350 350 351 351 352 354 356 357 357 356 356 355 355 356 356 357 358 358 359 1 3 3 3 3 5 13 24 54 128 145 149 148 146 139 124 116 108 100 100 97 94 97 94 84 65 48 45 41 27
326 330 331 330 331 335 338 338 337 338 340 339 338 339 341 341 340 340 342 343 343 343 344 345 345 345 346 346 347 350 353 353 351 351 351 351 351 351 351 351 352 352 354 356 358 358 357 357 357 357 357 358 359 360 360 1 4 6 6 8 11 13 19 32 80 134 145 147 148 146 139 128 120 111 109 112 107 97 93 84 70 53 47 48 45 38
327 331 331 329 331 335 338 336 335 337 339 339 339 340 341 341 341 341 342 343 343 344 344 345 346 347 347 347 349 351 353 352 352 352 352 352 353 352 351 352 353 353 354 355 358 359 358 358 358 358 359 0 1 1 1 3 7 9 9 12 16 19 24 44 103 137 144 147 148 146 138 128 122 115 116 120 113 99 86 71 58 50 47 49 47 45
330 331 330 329 329 332 336 335 335 336 337 337 338 340 340 341 341 341 342 343 343 344 345 345 347 348 349 349 350 351 352 352 352 353 353 353 354 353 353 353 353 354 354 355 358 359 359 359 359 359 0 2 3 2 3 5 8 11 12 15 18 22 31 63 118 140 146 148 149 146 137 131 124 113 107 106 103 98 88 78 71 60 52 53 52 47